Home > Weather > Liège > Past weeks

Flag for Belgium Past Weather in Liège, Belgium — Yesterday and Last 2 Weeks

Now
57 °F

Passing clouds.


Feels Like: 55 °F
Forecast: 54 / 65 °F
Wind: 10 mph from Southwest

Location: Bierset

Current Time: Jun 27, 2016 at 12:39:25 AM

Latest Report: Jun 26, 2016 at 11:50 PM


Visibility: N/A

Pressure: 30.09 "Hg

Humidity: 82%

Dew Point: 52 °F

Location of LiègeLocation

Past Weather in Liège — Graph

°F

Liège Temperature Yesterday

Maximum temperature yesterday: 64 °F (at 2:20 PM)
Minimum temperature yesterday: 52 °F (at 3:20 AM)
Average temperature yesterday: 57 °F

High & Low Weather Summary for the Past Weeks

 TemperatureHumidityPressure
High88 °F (Jun 23, 3:20 PM)94% (Jun 11, 11:20 PM)30.30 "Hg (Jun 11, 11:20 PM)
Low50 °F (Jun 16, 5:50 AM)46% (Jun 23, 6:20 PM)29.47 "Hg (Jun 15, 4:20 AM)
Average61 °F81%29.91 "Hg
* Reported Jun 11 11:20 PM — Jun 26 11:20 PM, Liège, Weather by CustomWeather, © 2016

Note: Actual official high and low records may vary slightly from our data, if they occured in-between our weather recording intervals... More about our weather records

Advertising

Liège Weather History for the Previous 24 Hours

Scroll right to see more
 ConditionsComfort  
Time TempWeatherWind HumidityBarometerVisibility
11:20 PM
Sun, Jun 26
57 °FPassing clouds.7 mph82%30.09 "HgN/A
10:50 PM57 °FPassing clouds.8 mph82%30.09 "HgN/A
10:20 PM57 °FPassing clouds.8 mph82%30.09 "HgN/A
9:50 PM57 °FPassing clouds.9 mph77%30.09 "HgN/A
9:20 PM57 °FPassing clouds.8 mph77%30.09 "HgN/A
8:50 PM57 °FPassing clouds.8 mph82%30.09 "HgN/A
8:20 PM61 °FPassing clouds.8 mph72%30.07 "HgN/A
7:50 PM61 °FPassing clouds.12 mph68%30.07 "HgN/A
7:20 PM61 °FPassing clouds.12 mph68%30.07 "HgN/A
6:50 PM61 °FPassing clouds.12 mph72%30.07 "HgN/A
6:20 PM61 °FScattered clouds.10 mph72%30.09 "HgN/A
5:50 PM61 °FScattered clouds.12 mph72%30.07 "HgN/A
5:20 PM61 °FScattered clouds.5 mph72%30.07 "Hg6 mi
4:50 PM63 °FScattered clouds.6 mph73%30.07 "Hg6 mi
4:20 PM61 °FScattered clouds.8 mph77%30.07 "Hg6 mi
3:50 PM57 °FScattered clouds.9 mph88%30.09 "Hg6 mi
3:20 PM55 °FRain showers. Broken clouds.17 mph82%30.07 "Hg3 mi
2:50 PM61 °FSprinkles. Scattered clouds.9 mph77%30.07 "Hg4 mi
2:20 PM64 °FScattered clouds.15 mph60%30.07 "HgN/A
1:50 PM63 °FScattered clouds.13 mph68%30.07 "HgN/A
1:20 PM63 °FScattered clouds.14 mph68%30.07 "HgN/A
12:50 PM61 °FScattered clouds.14 mph68%30.07 "HgN/A
12:20 PM61 °FScattered clouds.12 mph72%30.07 "HgN/A
11:50 AM61 °FScattered clouds.13 mph68%30.07 "HgN/A
11:20 AM59 °FScattered clouds.13 mph72%30.07 "HgN/A
10:50 AM59 °FScattered clouds.12 mph77%30.07 "HgN/A
10:20 AM59 °FScattered clouds.12 mph77%30.07 "HgN/A
9:50 AM57 °FPartly sunny.12 mph82%30.07 "HgN/A
9:20 AM57 °FPartly sunny.13 mph82%30.07 "HgN/A
8:50 AM55 °FPartly sunny.13 mph88%30.07 "HgN/A
8:20 AM55 °FScattered clouds.16 mph82%30.07 "HgN/A
7:50 AM54 °FPartly sunny.14 mph88%30.04 "HgN/A
7:20 AM54 °FPartly sunny.10 mph88%30.04 "HgN/A
6:50 AM52 °FPassing clouds.8 mph88%30.07 "HgN/A
6:20 AM52 °FPassing clouds.8 mph88%30.04 "HgN/A
5:50 AM52 °FPassing clouds.9 mph88%30.04 "HgN/A
5:20 AM52 °FPassing clouds.9 mph88%30.04 "HgN/A
4:50 AM52 °FPassing clouds.7 mph88%30.04 "HgN/A
4:20 AM52 °FPassing clouds.9 mph88%30.04 "HgN/A
3:50 AM52 °FPassing clouds.9 mph94%30.04 "HgN/A
3:20 AM52 °FPassing clouds.8 mph88%30.04 "HgN/A
2:50 AM54 °FPassing clouds.9 mph88%30.04 "HgN/A
2:20 AM55 °FPassing clouds.8 mph88%30.04 "Hg6 mi
1:50 AM55 °FPassing clouds.5 mph94%30.07 "Hg4 mi
1:20 AM55 °FPassing clouds.3 mph88%30.07 "Hg4 mi
12:50 AM57 °FPassing clouds.5 mph88%30.07 "HgN/A
12:20 AM57 °FPassing clouds.2 mph88%30.07 "HgN/A
Weather by CustomWeather, © 2016

See weather overviewHow to use our weather pages